QPF
0.01 0.01 0.01 0.02 0.03 0.02 0.02 0.03 0.04 0.04 0.03 0.02 0.02 0.03 0.03 0.03 0.03 0.03 0.04 0.03 0.03 0.03 0.04 0.04 0.05 0.05 0.05 0.06 0.06 0.06 0.06 0.07 0.08 0.09 0.09 0.09 0.10 0.10 0.08 0.08 0.08 0.07 0.07
0.01 0.02 0.01 0.01 0.01 0.01 0.01 0.01 0.02 0.01 0.01 0.01 0.01 0.01 0.01 0.02 0.02 0.01 0.01 0.01 0.02 0.03 0.04 0.05 0.05 0.05 0.04 0.04 0.04 0.04 0.04 0.04 0.06 0.07 0.09 0.09 0.09 0.07 0.06 0.06 0.06 0.06 0.08
0.01 0.01 0.01 0.01 0.01 0.00 0.00 0.01 0.01 0.01 0.01 0.01 0.01 0.01 0.01 0.01 0.01 0.01 0.01 0.02 0.03 0.03 0.03 0.04 0.05 0.05 0.04 0.03 0.03 0.02 0.03 0.03 0.06 0.09 0.11 0.11 0.11 0.10 0.07 0.06 0.06 0.06 0.07
0.01 0.01 0.01 0.01 0.01 0.01 0.01 0.01 0.00 0.01 0.01 0.00 0.01 0.01 0.01 0.01 0.01 0.01 0.01 0.01 0.01 0.02 0.02 0.02 0.02 0.02 0.02 0.02 0.03 0.02 0.03 0.04 0.05 0.08 0.11 0.12 0.11 0.12 0.11 0.08 0.07 0.08 0.08
0.00 0.01 0.01 0.00 0.00 0.00 0.00 0.00 0.00 0.00 0.00 0.00 0.00 0.01 0.01 0.01 0.01 0.00 0.00 0.00 0.00 0.00 0.00 0.01 0.01 0.01 0.02 0.02 0.03 0.03 0.04 0.05 0.05 0.07 0.10 0.14 0.13 0.11 0.11 0.10 0.09 0.09 0.08
0.00 0.00 0.00 0.00 0.00 0.00 0.00 0.00 0.00 0.00 0.00 0.00 0.00 0.01 0.01 0.00 0.00 0.00 0.00 0.00 0.00 0.00 0.00 0.00 0.01 0.02 0.02 0.03 0.03 0.03 0.04 0.04 0.05 0.06 0.08 0.11 0.14 0.13 0.12 0.11 0.09 0.09 0.08
0.00 0.00 0.00 0.00 0.00 0.00 0.00 0.00 0.00 0.00 0.00 0.00 0.00 0.00 0.00 0.00 0.00 0.00 0.00 0.00 0.00 0.00 0.00 0.00 0.00 0.01 0.02 0.03 0.04 0.05 0.04 0.04 0.04 0.05 0.07 0.08 0.10 0.13 0.16 0.16 0.13 0.11 0.09
0.00 0.00 0.00 0.00 0.00 0.00 0.00 0.00 0.00 0.00 0.00 0.00 0.00 0.00 0.00 0.00 0.00 0.00 0.00 0.00 0.00 0.00 0.00 0.00 0.00 0.00 0.01 0.01 0.02 0.03 0.04 0.04 0.04 0.03 0.04 0.05 0.07 0.09 0.12 0.16 0.16 0.14 0.11
0.00 0.00 0.00 0.00 0.00 0.00 0.00 0.00 0.00 0.00 0.00 0.00 0.00 0.00 0.00 0.00 0.00 0.00 0.00 0.00 0.00 0.00 0.00 0.00 0.00 0.01 0.01 0.01 0.02 0.02 0.02 0.03 0.03 0.03 0.03 0.04 0.05 0.06 0.08 0.12 0.14 0.16 0.14
0.00 0.00 0.00 0.00 0.00 0.00 0.00 0.00 0.00 0.00 0.00 0.00 0.00 0.00 0.00 0.00 0.00 0.00 0.00 0.00 0.00 0.00 0.00 0.00 0.00 0.01 0.01 0.01 0.01 0.01 0.01 0.02 0.02 0.02 0.03 0.04 0.04 0.05 0.06 0.09 0.12 0.14 0.15
0.00 0.00 0.00 0.00 0.00 0.00 0.00 0.00 0.00 0.00 0.00 0.00 0.00 0.00 0.00 0.00 0.00 0.00 0.00 0.00 0.00 0.00 0.00 0.00 0.00 0.01 0.01 0.01 0.02 0.02 0.01 0.02 0.02 0.02 0.02 0.04 0.05 0.05 0.05 0.07 0.10 0.13 0.13
0.00 0.00 0.00 0.00 0.00 0.00 0.00 0.00 0.00 0.00 0.00 0.00 0.00 0.00 0.00 0.00 0.00 0.00 0.00 0.00 0.00 0.00 0.00 0.00 0.00 0.00 0.01 0.01 0.02 0.02 0.02 0.02 0.02 0.02 0.02 0.03 0.03 0.05 0.06 0.06 0.08 0.11 0.14
0.00 0.00 0.00 0.00 0.00 0.00 0.00 0.00 0.00 0.00 0.00 0.00 0.00 0.00 0.00 0.00 0.00 0.00 0.00 0.00 0.00 0.01 0.01 0.01 0.01 0.01 0.01 0.01 0.01 0.02 0.02 0.03 0.03 0.03 0.03 0.03 0.03 0.05 0.06 0.08 0.07 0.09 0.12
0.00 0.00 0.00 0.00 0.00 0.00 0.00 0.00 0.00 0.00 0.00 0.00 0.00 0.00 0.00 0.00 0.00 0.00 0.00 0.01 0.01 0.01 0.01 0.01 0.01 0.01 0.01 0.01 0.02 0.02 0.02 0.03 0.04 0.04 0.04 0.03 0.04 0.06 0.07 0.08 0.10 0.10 0.13
0.00 0.00 0.00 0.00 0.00 0.00 0.00 0.00 0.00 0.00 0.00 0.00 0.00 0.00 0.00 0.00 0.00 0.00 0.01 0.01 0.01 0.01 0.01 0.01 0.01 0.01 0.01 0.01 0.02 0.02 0.03 0.04 0.05 0.05 0.05 0.05 0.04 0.03 0.04 0.05 0.08 0.10 0.12
0.00 0.00 0.00 0.00 0.00 0.00 0.00 0.00 0.00 0.00 0.00 0.00 0.00 0.00 0.00 0.00 0.00 0.00 0.00 0.00 0.00 0.01 0.01 0.00 0.01 0.01 0.01 0.00 0.00 0.01 0.02 0.04 0.05 0.05 0.05 0.05 0.04 0.04 0.02 0.02 0.05 0.09 0.11
0.00 0.00 0.00 0.00 0.00 0.00 0.00 0.00 0.00 0.00 0.00 0.00 0.00 0.00 0.00 0.00 0.00 0.00 0.00 0.00 0.01 0.01 0.01 0.01 0.01 0.01 0.02 0.00 0.00 0.00 0.01 0.03 0.05 0.06 0.07 0.05 0.05 0.05 0.06 0.04 0.04 0.06 0.08
0.00 0.00 0.00 0.00 0.00 0.00 0.00 0.00 0.00 0.00 0.00 0.00 0.00 0.00 0.00 0.00 0.00 0.00 0.00 0.01 0.01 0.01 0.01 0.01 0.01 0.02 0.02 0.00 0.00 0.00 0.01 0.03 0.04 0.05 0.07 0.08 0.08 0.08 0.08 0.08 0.06 0.07 0.07
0.00 0.00 0.00 0.00 0.00 0.00 0.00 0.00 0.00 0.00 0.00 0.00 0.00 0.00 0.00 0.00 0.00 0.00 0.00 0.00 0.00 0.01 0.01 0.01 0.01 0.02 0.02 0.01 0.00 0.00 0.02 0.04 0.04 0.04 0.05 0.06 0.09 0.07 0.04 0.07 0.08 0.09 0.09
0.00 0.00 0.00 0.00 0.00 0.00 0.00 0.00 0.00 0.00 0.00 0.00 0.00 0.00 0.00 0.00 0.00 0.00 0.00 0.00 0.00 0.01 0.01 0.01 0.02 0.02 0.02 0.01 0.00 0.01 0.03 0.06 0.07 0.06 0.05 0.04 0.06 0.07 0.04 0.06 0.08 0.08 0.08
0.00 0.00 0.00 0.00 0.00 0.00 0.00 0.00 0.00 0.00 0.00 0.00 0.00 0.00 0.00 0.00 0.00 0.00 0.00 0.01 0.01 0.01 0.01 0.01 0.02 0.02 0.01 0.01 0.00 0.00 0.03 0.06 0.08 0.07 0.06 0.05 0.03 0.04 0.04 0.04 0.07 0.07 0.06
0.00 0.00 0.00 0.00 0.00 0.00 0.00 0.00 0.00 0.00 0.00 0.00 0.00 0.00 0.00 0.00 0.00 0.00 0.01 0.01 0.01 0.01 0.01 0.01 0.01 0.01 0.02 0.01 0.01 0.01 0.01 0.02 0.06 0.07 0.06 0.05 0.02 0.02 0.02 0.02 0.03 0.02 0.02
0.00 0.00 0.00 0.00 0.00 0.00 0.00 0.00 0.00 0.00 0.00 0.00 0.00 0.00 0.00 0.00 0.00 0.00 0.01 0.01 0.01 0.01 0.01 0.01 0.01 0.01 0.01 0.02 0.01 0.01 0.01 0.01 0.03 0.04 0.03 0.03 0.02 0.02 0.02 0.01 0.01 0.01 0.02
0.00 0.00 0.00 0.00 0.00 0.00 0.00 0.00 0.00 0.00 0.00 0.00 0.00 0.00 0.00 0.00 0.00 0.00 0.00 0.00 0.01 0.00 0.00 0.00 0.01 0.01 0.01 0.02 0.02 0.01 0.02 0.01 0.02 0.03 0.02 0.02 0.03 0.03 0.03 0.02 0.01 0.02 0.04
0.00 0.00 0.00 0.00 0.00 0.00 0.00 0.00 0.00 0.00 0.00 0.00 0.00 0.00 0.00 0.00 0.00 0.00 0.00 0.00 0.00 0.00 0.00 0.00 0.00 0.00 0.01 0.01 0.01 0.01 0.02 0.02 0.02 0.03 0.04 0.05 0.05 0.05 0.06 0.05 0.04 0.03 0.04
0.00 0.00 0.00 0.00 0.00 0.00 0.00 0.00 0.00 0.00 0.00 0.00 0.00 0.00 0.00 0.00 0.00 0.00 0.00 0.00 0.00 0.00 0.00 0.00 0.00 0.00 0.00 0.00 0.01 0.01 0.02 0.01 0.01 0.02 0.04 0.05 0.06 0.07 0.07 0.07 0.07 0.07 0.06
MSLP
1015.35 1015.33 1015.34 1015.38 1015.41 1015.44 1015.45 1015.45 1015.46 1015.47 1015.49 1015.53 1015.57 1015.60 1015.63 1015.65 1015.66 1015.67 1015.71 1015.76 1015.84 1015.96 1016.09 1016.22 1016.34 1016.43 1016.47 1016.45 1016.37 1016.24 1016.06 1015.83 1015.59 1015.33 1015.06 1014.79 1014.51 1014.23 1013.96 1013.71 1013.50 1013.35 1013.28
1015.51 1015.55 1015.63 1015.71 1015.78 1015.81 1015.83 1015.82 1015.81 1015.82 1015.83 1015.86 1015.89 1015.92 1015.93 1015.92 1015.89 1015.86 1015.84 1015.84 1015.88 1015.95 1016.04 1016.15 1016.26 1016.33 1016.36 1016.32 1016.22 1016.06 1015.85 1015.61 1015.34 1015.07 1014.79 1014.51 1014.23 1013.94 1013.65 1013.37 1013.11 1012.90 1012.75
1015.51 1015.63 1015.78 1015.92 1016.03 1016.10 1016.14 1016.15 1016.16 1016.17 1016.20 1016.24 1016.28 1016.31 1016.31 1016.28 1016.21 1016.13 1016.05 1015.99 1015.96 1015.97 1016.02 1016.09 1016.16 1016.21 1016.21 1016.15 1016.03 1015.84 1015.61 1015.34 1015.06 1014.79 1014.51 1014.24 1013.98 1013.70 1013.42 1013.13 1012.84 1012.58 1012.36
1015.40 1015.60 1015.82 1016.02 1016.19 1016.30 1016.36 1016.40 1016.43 1016.48 1016.53 1016.60 1016.66 1016.70 1016.71 1016.66 1016.56 1016.44 1016.30 1016.17 1016.07 1016.02 1016.01 1016.04 1016.07 1016.08 1016.06 1015.97 1015.82 1015.61 1015.36 1015.08 1014.80 1014.52 1014.26 1014.02 1013.78 1013.53 1013.27 1012.99 1012.69 1012.38 1012.10
1015.26 1015.52 1015.81 1016.06 1016.26 1016.41 1016.50 1016.56 1016.62 1016.69 1016.78 1016.87 1016.97 1017.03 1017.04 1016.99 1016.87 1016.71 1016.52 1016.34 1016.18 1016.07 1016.01 1015.98 1015.97 1015.95 1015.90 1015.79 1015.62 1015.39 1015.12 1014.84 1014.55 1014.29 1014.05 1013.83 1013.62 1013.41 1013.18 1012.91 1012.61 1012.27 1011.93
1015.16 1015.47 1015.80 1016.08 1016.30 1016.46 1016.57 1016.64 1016.71 1016.80 1016.91 1017.03 1017.14 1017.23 1017.25 1017.20 1017.08 1016.90 1016.68 1016.45 1016.25 1016.08 1015.97 1015.90 1015.85 1015.80 1015.71 1015.59 1015.40 1015.16 1014.89 1014.60 1014.32 1014.07 1013.85 1013.66 1013.48 1013.30 1013.10 1012.85 1012.54 1012.18 1011.79
1015.15 1015.49 1015.83 1016.12 1016.34 1016.49 1016.59 1016.65 1016.72 1016.81 1016.92 1017.05 1017.18 1017.28 1017.31 1017.27 1017.15 1016.96 1016.72 1016.46 1016.22 1016.02 1015.87 1015.76 1015.68 1015.59 1015.49 1015.35 1015.15 1014.91 1014.64 1014.35 1014.08 1013.83 1013.62 1013.45 1013.30 1013.15 1012.96 1012.73 1012.42 1012.05 1011.62
1015.25 1015.60 1015.93 1016.20 1016.40 1016.53 1016.60 1016.64 1016.68 1016.75 1016.85 1016.97 1017.10 1017.20 1017.24 1017.20 1017.08 1016.88 1016.63 1016.36 1016.10 1015.86 1015.68 1015.54 1015.42 1015.32 1015.20 1015.04 1014.84 1014.59 1014.32 1014.03 1013.76 1013.52 1013.32 1013.16 1013.02 1012.88 1012.72 1012.49 1012.19 1011.81 1011.36
1015.42 1015.76 1016.07 1016.32 1016.49 1016.58 1016.61 1016.62 1016.63 1016.67 1016.74 1016.84 1016.95 1017.03 1017.06 1017.01 1016.89 1016.68 1016.43 1016.14 1015.86 1015.61 1015.39 1015.22 1015.08 1014.95 1014.81 1014.64 1014.43 1014.18 1013.90 1013.62 1013.35 1013.10 1012.90 1012.74 1012.60 1012.47 1012.32 1012.11 1011.82 1011.44 1010.98
1015.60 1015.92 1016.21 1016.43 1016.57 1016.64 1016.64 1016.62 1016.60 1016.60 1016.64 1016.70 1016.77 1016.82 1016.82 1016.76 1016.61 1016.40 1016.13 1015.83 1015.54 1015.26 1015.02 1014.82 1014.65 1014.50 1014.33 1014.14 1013.92 1013.66 1013.38 1013.09 1012.81 1012.56 1012.34 1012.17 1012.03 1011.90 1011.75 1011.56 1011.29 1010.94 1010.49
1015.71 1016.02 1016.29 1016.50 1016.62 1016.68 1016.67 1016.63 1016.59 1016.57 1016.57 1016.59 1016.61 1016.61 1016.57 1016.47 1016.30 1016.06 1015.77 1015.46 1015.15 1014.85 1014.59 1014.36 1014.16 1013.97 1013.78 1013.57 1013.32 1013.05 1012.75 1012.45 1012.15 1011.89 1011.66 1011.48 1011.33 1011.20 1011.06 1010.89 1010.65 1010.34 1009.93
1015.71 1016.01 1016.27 1016.48 1016.61 1016.67 1016.67 1016.64 1016.59 1016.55 1016.52 1016.50 1016.47 1016.42 1016.33 1016.18 1015.97 1015.70 1015.39 1015.06 1014.73 1014.41 1014.12 1013.87 1013.64 1013.42 1013.19 1012.95 1012.68 1012.38 1012.06 1011.74 1011.43 1011.14 1010.90 1010.70 1010.54 1010.41 1010.29 1010.15 1009.96 1009.70 1009.35
1015.58 1015.88 1016.15 1016.36 1016.51 1016.60 1016.63 1016.62 1016.58 1016.53 1016.48 1016.42 1016.34 1016.24 1016.09 1015.89 1015.63 1015.33 1015.00 1014.65 1014.30 1013.97 1013.66 1013.38 1013.12 1012.87 1012.61 1012.33 1012.03 1011.71 1011.37 1011.03 1010.69 1010.39 1010.13 1009.91 1009.75 1009.63 1009.52 1009.42 1009.28 1009.09 1008.82
1015.37 1015.66 1015.94 1016.17 1016.34 1016.46 1016.53 1016.55 1016.53 1016.49 1016.42 1016.33 1016.20 1016.04 1015.84 1015.59 1015.29 1014.96 1014.61 1014.25 1013.90 1013.55 1013.24 1012.94 1012.65 1012.37 1012.08 1011.77 1011.44 1011.09 1010.72 1010.36 1010.00 1009.69 1009.41 1009.19 1009.03 1008.91 1008.83 1008.76 1008.68 1008.56 1008.37
1015.12 1015.41 1015.68 1015.93 1016.13 1016.28 1016.38 1016.43 1016.43 1016.40 1016.32 1016.19 1016.03 1015.82 1015.57 1015.27 1014.95 1014.59 1014.23 1013.87 1013.51 1013.17 1012.85 1012.54 1012.24 1011.93 1011.62 1011.28 1010.93 1010.55 1010.17 1009.78 1009.42 1009.09 1008.81 1008.58 1008.42 1008.32 1008.26 1008.23 1008.20 1008.15 1008.05
1014.90 1015.18 1015.45 1015.69 1015.90 1016.07 1016.19 1016.27 1016.29 1016.25 1016.16 1016.01 1015.81 1015.56 1015.27 1014.94 1014.59 1014.22 1013.86 1013.50 1013.16 1012.83 1012.51 1012.20 1011.89 1011.57 1011.24 1010.88 1010.51 1010.12 1009.72 1009.33 1008.96 1008.63 1008.35 1008.13 1007.98 1007.88 1007.85 1007.85 1007.87 1007.88 1007.85
1014.75 1015.01 1015.26 1015.49 1015.70 1015.87 1016.00 1016.08 1016.10 1016.06 1015.95 1015.78 1015.55 1015.27 1014.94 1014.59 1014.23 1013.86 1013.50 1013.16 1012.83 1012.51 1012.21 1011.90 1011.59 1011.27 1010.93 1010.57 1010.18 1009.79 1009.40 1009.01 1008.65 1008.33 1008.05 1007.84 1007.69 1007.61 1007.59 1007.61 1007.66 1007.71 1007.74
1014.68 1014.92 1015.14 1015.35 1015.54 1015.70 1015.82 1015.89 1015.90 1015.85 1015.72 1015.52 1015.27 1014.96 1014.62 1014.25 1013.88 1013.52 1013.17 1012.84 1012.52 1012.23 1011.94 1011.64 1011.34 1011.02 1010.68 1010.32 1009.94 1009.56 1009.18 1008.81 1008.47 1008.16 1007.90 1007.70 1007.56 1007.48 1007.46 1007.49 1007.56 1007.64 1007.70
1014.65 1014.87 1015.07 1015.25 1015.41 1015.55 1015.65 1015.71 1015.70 1015.63 1015.48 1015.27 1014.99 1014.67 1014.31 1013.93 1013.56 1013.20 1012.86 1012.54 1012.25 1011.96 1011.69 1011.40 1011.11 1010.80 1010.47 1010.13 1009.77 1009.41 1009.06 1008.72 1008.40 1008.12 1007.87 1007.68 1007.54 1007.45 1007.42 1007.44 1007.50 1007.59 1007.67
1014.62 1014.82 1014.99 1015.15 1015.29 1015.40 1015.49 1015.52 1015.50 1015.41 1015.25 1015.03 1014.74 1014.40 1014.03 1013.65 1013.28 1012.92 1012.58 1012.28 1011.99 1011.72 1011.45 1011.18 1010.91 1010.62 1010.31 1009.99 1009.67 1009.34 1009.02 1008.71 1008.43 1008.17 1007.94 1007.74 1007.59 1007.49 1007.43 1007.42 1007.46 1007.52 1007.60
1014.52 1014.71 1014.87 1015.01 1015.13 1015.23 1015.30 1015.33 1015.30 1015.20 1015.04 1014.80 1014.51 1014.16 1013.79 1013.41 1013.03 1012.67 1012.34 1012.03 1011.75 1011.49 1011.24 1010.99 1010.73 1010.47 1010.19 1009.91 1009.63 1009.34 1009.06 1008.80 1008.54 1008.29 1008.07 1007.86 1007.69 1007.55 1007.44 1007.39 1007.38 1007.40 1007.47
1014.33 1014.51 1014.67 1014.80 1014.92 1015.02 1015.09 1015.12 1015.09 1014.99 1014.83 1014.59 1014.29 1013.94 1013.57 1013.18 1012.80 1012.44 1012.11 1011.81 1011.54 1011.29 1011.05 1010.83 1010.60 1010.37 1010.14 1009.90 1009.66 1009.43 1009.19 1008.95 1008.71 1008.48 1008.25 1008.02 1007.80 1007.61 1007.44 1007.32 1007.24 1007.21 1007.24
1014.02 1014.21 1014.37 1014.52 1014.65 1014.76 1014.84 1014.87 1014.86 1014.77 1014.61 1014.37 1014.07 1013.73 1013.35 1012.96 1012.57 1012.21 1011.88 1011.59 1011.33 1011.10 1010.90 1010.70 1010.52 1010.34 1010.15 1009.97 1009.78 1009.59 1009.38 1009.17 1008.94 1008.70 1008.45 1008.18 1007.91 1007.65 1007.41 1007.20 1007.05 1006.96 1006.93
1013.65 1013.84 1014.02 1014.18 1014.33 1014.46 1014.56 1014.61 1014.60 1014.52 1014.37 1014.14 1013.84 1013.49 1013.11 1012.71 1012.33 1011.97 1011.65 1011.37 1011.14 1010.94 1010.77 1010.62 1010.49 1010.36 1010.24 1010.10 1009.96 1009.80 1009.63 1009.43 1009.20 1008.94 1008.65 1008.33 1008.00 1007.67 1007.35 1007.06 1006.82 1006.66 1006.56
1013.24 1013.45 1013.64 1013.83 1014.00 1014.15 1014.26 1014.33 1014.33 1014.26 1014.11 1013.87 1013.57 1013.22 1012.83 1012.44 1012.05 1011.71 1011.40 1011.14 1010.94 1010.78 1010.67 1010.57 1010.50 1010.43 1010.35 1010.27 1010.16 1010.03 1009.87 1009.67 1009.43 1009.15 1008.82 1008.45 1008.07 1007.66 1007.27 1006.91 1006.60 1006.36 1006.20
1012.86 1013.08 1013.29 1013.49 1013.68 1013.84 1013.97 1014.05 1014.06 1013.98 1013.82 1013.58 1013.27 1012.91 1012.51 1012.12 1011.74 1011.41 1011.12 1010.90 1010.73 1010.62 1010.55 1010.52 1010.50 1010.48 1010.45 1010.40 1010.32 1010.21 1010.05 1009.85 1009.59 1009.28 1008.92 1008.52 1008.09 1007.64 1007.20 1006.78 1006.41 1006.11 1005.90
Thickness
5726 5726 5724 5721 5718 5715 5712 5710 5708 5706 5704 5703 5702 5700 5701 5700 5700 5698 5695 5694 5694 5695 5695 5698 5697 5696 5697 5698 5700 5700 5702 5703 5705 5705 5708 5713 5716 5717 5718 5720 5722 5724 5725
5719 5718 5717 5715 5712 5708 5705 5702 5700 5698 5697 5694 5693 5692 5692 5692 5692 5690 5687 5686 5686 5686 5689 5687 5689 5690 5689 5691 5692 5693 5695 5699 5701 5700 5700 5703 5709 5713 5719 5720 5721 5723 5724
5716 5713 5711 5708 5706 5703 5699 5698 5693 5691 5689 5687 5688 5687 5685 5685 5685 5682 5681 5679 5678 5677 5677 5678 5679 5680 5682 5684 5684 5685 5686 5689 5694 5695 5693 5694 5698 5707 5714 5717 5719 5720 5721
5716 5712 5708 5704 5701 5698 5695 5691 5687 5684 5681 5680 5680 5677 5675 5675 5674 5673 5673 5671 5670 5670 5669 5669 5670 5671 5674 5675 5675 5680 5679 5680 5684 5687 5688 5689 5693 5691 5698 5707 5712 5715 5716
5715 5710 5706 5701 5698 5694 5690 5686 5681 5677 5674 5672 5671 5668 5668 5667 5668 5666 5665 5662 5664 5662 5662 5661 5661 5662 5664 5666 5666 5668 5669 5672 5674 5677 5679 5681 5683 5685 5685 5691 5700 5706 5712
5714 5708 5704 5699 5694 5691 5686 5682 5676 5671 5668 5666 5664 5661 5659 5658 5657 5656 5656 5656 5658 5657 5656 5653 5652 5653 5654 5655 5656 5658 5660 5662 5664 5667 5670 5672 5674 5677 5680 5683 5689 5695 5703
5713 5707 5701 5695 5690 5685 5681 5677 5671 5666 5664 5661 5658 5656 5653 5651 5650 5649 5649 5647 5649 5649 5646 5644 5642 5643 5644 5644 5646 5648 5650 5653 5654 5657 5660 5664 5667 5670 5672 5674 5679 5685 5694
5711 5704 5699 5693 5687 5682 5677 5672 5667 5662 5659 5656 5653 5650 5647 5648 5647 5643 5640 5640 5639 5639 5635 5633 5632 5633 5634 5635 5637 5639 5641 5644 5645 5649 5651 5654 5658 5662 5664 5666 5668 5673 5682
5707 5702 5696 5690 5684 5679 5673 5668 5663 5658 5654 5651 5648 5646 5643 5640 5638 5635 5633 5634 5631 5630 5628 5625 5624 5624 5625 5625 5626 5629 5630 5633 5636 5640 5643 5645 5650 5653 5656 5659 5662 5662 5668
5706 5700 5694 5688 5683 5677 5671 5665 5660 5655 5651 5648 5645 5643 5639 5635 5631 5629 5626 5624 5622 5620 5618 5618 5617 5616 5616 5616 5617 5619 5622 5622 5625 5628 5631 5635 5640 5643 5647 5651 5655 5658 5660
5705 5698 5693 5687 5681 5676 5670 5663 5658 5653 5648 5644 5640 5637 5634 5631 5627 5624 5621 5618 5616 5613 5611 5610 5609 5608 5608 5608 5608 5610 5611 5612 5615 5618 5622 5625 5628 5632 5637 5642 5646 5651 5654
5704 5697 5691 5684 5678 5673 5667 5662 5656 5650 5646 5642 5637 5634 5630 5626 5623 5621 5617 5613 5610 5608 5606 5604 5602 5601 5601 5600 5599 5599 5602 5603 5605 5607 5611 5614 5619 5622 5626 5631 5637 5642 5647
5701 5695 5687 5681 5674 5669 5663 5658 5653 5648 5643 5639 5634 5630 5626 5622 5618 5615 5612 5608 5605 5602 5600 5597 5595 5593 5592 5591 5591 5591 5591 5593 5595 5597 5600 5603 5607 5611 5616 5621 5627 5633 5639
5698 5691 5684 5677 5671 5665 5660 5655 5650 5645 5640 5635 5631 5626 5622 5618 5614 5611 5607 5604 5600 5597 5594 5591 5588 5587 5585 5584 5583 5583 5583 5583 5585 5587 5590 5593 5597 5601 5605 5611 5616 5622 5628
5696 5689 5682 5675 5669 5663 5657 5652 5647 5641 5636 5631 5627 5623 5619 5615 5611 5607 5603 5599 5595 5592 5588 5585 5583 5581 5579 5578 5576 5574 5575 5575 5576 5578 5581 5584 5588 5591 5595 5602 5608 5614 5619
5696 5689 5682 5675 5668 5661 5655 5649 5644 5638 5633 5628 5624 5621 5616 5612 5608 5603 5599 5595 5591 5587 5582 5579 5577 5575 5574 5568 5562 5560 5564 5566 5568 5570 5573 5576 5579 5582 5584 5589 5594 5601 5608
5696 5689 5681 5674 5666 5660 5653 5647 5642 5636 5631 5626 5622 5618 5613 5609 5604 5600 5595 5591 5587 5583 5578 5575 5572 5569 5566 5560 5555 5552 5553 5558 5561 5564 5565 5569 5576 5576 5580 5583 5586 5591 5597
5696 5688 5682 5674 5667 5660 5653 5645 5641 5635 5630 5625 5620 5616 5610 5606 5601 5596 5592 5587 5583 5579 5575 5571 5568 5564 5561 5555 5550 5546 5548 5553 5556 5558 5560 5561 5564 5568 5571 5576 5582 5588 5593
5695 5688 5681 5674 5665 5658 5651 5644 5639 5634 5629 5624 5618 5614 5608 5603 5598 5594 5589 5585 5580 5576 5573 5570 5566 5562 5558 5551 5546 5540 5548 5551 5552 5554 5556 5557 5558 5558 5560 5567 5573 5579 5585
5694 5686 5680 5672 5663 5656 5649 5642 5638 5633 5627 5622 5616 5611 5606 5601 5596 5591 5587 5583 5578 5575 5571 5568 5564 5561 5556 5549 5543 5538 5544 5547 5548 5550 5551 5549 5551 5551 5553 5560 5566 5571 5577
5691 5684 5677 5669 5662 5655 5647 5641 5636 5631 5626 5620 5615 5610 5605 5600 5596 5591 5586 5581 5577 5573 5569 5566 5564 5560 5554 5549 5542 5537 5539 5542 5543 5545 5548 5549 5545 5545 5547 5551 5558 5563 5568
5689 5682 5674 5668 5661 5653 5646 5640 5635 5630 5624 5619 5614 5610 5605 5601 5597 5591 5586 5581 5576 5574 5570 5567 5564 5562 5556 5548 5542 5536 5532 5532 5537 5540 5543 5543 5539 5539 5541 5545 5550 5553 5558
5687 5681 5674 5666 5660 5653 5646 5639 5634 5628 5622 5617 5613 5609 5605 5600 5596 5591 5587 5583 5579 5575 5572 5568 5564 5561 5557 5551 5541 5536 5532 5530 5533 5537 5535 5535 5533 5534 5538 5539 5542 5547 5555
5685 5679 5672 5665 5659 5653 5646 5639 5633 5627 5621 5617 5613 5609 5605 5602 5597 5591 5588 5584 5580 5576 5571 5567 5563 5559 5556 5551 5545 5540 5538 5533 5534 5536 5535 5531 5531 5532 5535 5538 5541 5547 5554
5683 5677 5669 5663 5657 5651 5645 5639 5633 5626 5620 5616 5613 5609 5606 5602 5595 5592 5587 5582 5578 5571 5564 5563 5560 5556 5553 5544 5533 5532 5535 5536 5535 5533 5535 5537 5538 5539 5540 5542 5545 5548 5552
5681 5674 5668 5662 5657 5651 5644 5638 5632 5625 5618 5615 5612 5610 5607 5602 5598 5593 5590 5582 5576 5569 5562 5555 5549 5551 5544 5538 5534 5531 5529 5528 5526 5529 5536 5538 5539 5539 5540 5541 5543 5545 5548